This is the latest recevied weather packets stored in our database for station/object ED5YAL-15. If no packets are shown the sender has not sent any weather packets the latest 1 day(s).
| Time | Temp. | Humidity | Pressure | Rain* | Wind** | Luminosity | Snow |
|---|---|---|---|---|---|---|---|
| 1778053612 | 15.56° C | 49% | 1014.7 hPa | - | - | - | - |
| 1778052744 | 15.56° C | 48% | 1014.7 hPa | - | - | - | - |
| 1778052712 | 15.56° C | 48% | 1014.7 hPa | - | - | - | - |
| 1778051813 | 17.22° C | 48% | 1014.7 hPa | - | - | - | - |
| 1778050910 | 17.22° C | 48% | 1014.8 hPa | - | - | - | - |
| 1778050009 | 16.11° C | 48% | 1014.9 hPa | - | - | - | - |
| 1778046406 | 11.11° C | 49% | 1014.6 hPa | - | - | - | - |
| 1778042803 | 11.11° C | 49% | 1014.3 hPa | - | - | - | - |
| 1778041902 | 11.11° C | 49% | 1014.4 hPa | - | - | - | - |
| 1778041001 | 11.11° C | 49% | 1014.3 hPa | - | - | - | - |
| 1778040103 | 11.11° C | 49% | 1014.3 hPa | - | - | - | - |
| 1778037398 | 11.67° C | 49% | 1014.7 hPa | - | - | - | - |
| 1778036497 | 11.67° C | 49% | 1014.7 hPa | - | - | - | - |
| 1778035596 | 11.67° C | 49% | 1014.8 hPa | - | - | - | - |
| 1778034695 | 11.67° C | 49% | 1014.8 hPa | - | - | - | - |
| 1778032914 | 12.22° C | 49% | 1014.8 hPa | - | - | - | - |
| 1778032053 | 12.22° C | 49% | 1015 hPa | - | - | - | - |
| 1778032013 | 12.22° C | 49% | 1015 hPa | - | - | - | - |
| 1778031112 | 12.22° C | 49% | 1015 hPa | - | - | - | - |
| 1778030211 | 12.22° C | 49% | 1015 hPa | - | - | - | - |
| 1778029310 | 12.22° C | 49% | 1015.1 hPa | - | - | - | - |
| 1778028446 | 12.22° C | 50% | 1015.2 hPa | - | - | - | - |
| 1778028410 | 12.22° C | 50% | 1015.2 hPa | - | - | - | - |
| 1778027509 | 12.22° C | 50% | 1015.2 hPa | - | - | - | - |
| 1778026608 | 12.78° C | 50% | 1015.5 hPa | - | - | - | - |
* Rain since midnight (hover to see other rain measurements)
** Current wind speed in m/s (hover to see current wind gust speed)